Location: Unspecified
(51.3762°N, 0.0000°E)
Time: 04:28:37
(UTC+00:00)

O/OREOS (USA 219) - Visible Passes

Search period start: 21 July 2019 00:00
Search period end: 31 July 2019 00:00
Orbit: 621 x 646 km, 72.0° (Epoch: 22 May)

Date Brightness Start Highest point End Pass type
(mag) Time Alt. Az. Time Alt. Az. Time Alt. Az.
23 Jul ? 02:34:24 10° SE 02:36:27 13° E 02:38:30 10° ENE visible
24 Jul ? 02:54:23 10° SSE 02:58:07 25° ESE 03:01:52 10° NE visible
25 Jul ? 03:15:33 10° S 03:19:57 49° ESE 03:24:21 10° NE visible
26 Jul ? 02:00:48 10° SE 02:03:12 14° E 02:05:37 10° ENE visible
27 Jul ? 02:21:02 10° SSE 02:24:54 27° ESE 02:28:45 10° NE visible
28 Jul ? 02:42:46 13° S 02:46:45 54° ESE 02:51:12 10° NE visible
29 Jul ? 01:27:15 10° SE 01:29:57 16° E 01:32:39 10° ENE visible
29 Jul ? 03:04:39 13° SSW 03:08:46 78° WNW 03:13:20 10° NNE visible
30 Jul ? 01:49:02 17° SSE 01:51:40 30° ESE 01:55:37 10° NE visible
30 Jul ? 03:26:38 10° SW 03:30:58 42° NW 03:35:17 10° NNE visible
